Location: Unspecified
(52.1971°N, 0.0000°E)
Time: 02:58:35
(UTC+00:00)

YUBILEINY - Pass Details

Date: 20 December 2019
Orbit: 1478 x 1509 km, 82.5° (Epoch: 22 January)

Event Time Altitude Azimuth Distance (km) Brightness Sun altitude
Exits shadow 22:27:36 14° 357° (N) 3,305 ? -56.5°
Drops below altitude 10° 22:28:49 10° 2° (N) 3,630 ? -56.6°
Sets 22:32:09 0° 13° (NNE) 4,613 ? -56.9°
